Regional Weather Roundup
Issued by NWS

Home | Current Version | Previous Version | Graphics & Text | Print | Product List | Glossary On
Versions: 1 2 3 4 5 6 7 8 9 10 11 12 13 14 15 16 17 18 19 20 21 22 23 24 25 26 27 28 29 30 31 32 33 34 35 36 37 38 39 40 41 42 43 44 45 46 47 48 49 50
988
ASUS44 KMEG 061100
RWRTN
TENNESSEE HOURLY STATE WEATHER ROUNDUP
NATIONAL WEATHER SERVICE MEMPHIS TN
500 AM CST SAT FEB 06 2016

TNZ002-004-019-021-049-052-054-088>092-061200-
WEST TENNESSEE

CITY           SKY/WX    TMP DP  RH WIND       PRES   REMARKS
MEMPHIS INTL   MOCLDY    36  26  67 CALM      30.35S
NWS MEMPHIS      N/A     31 N/A N/A MISG        N/A
JACKSON        PTCLDY    26  23  88 CALM      30.36S
DYERSBURG      CLEAR     30  27  86 CALM      30.37S
UNION CITY     CLEAR     27  23  86 CALM      30.33F
PARIS          CLEAR     28  18  64 S5        30.35S WCI  23
LEXINGTON      CLEAR     25  23  93 CALM      30.35S
$$

TNZ008-025-027-028-033-062-065-066-061200-
NORTH MIDDLE TENNESSEE

CITY           SKY/WX    TMP DP  RH WIND       PRES   REMARKS
NASHVILLE      PTCLDY    29  22  75 CALM      30.37S
CLARKSVILLE    CLEAR     27  24  89 CALM      30.36R
COOKEVILLE     CLEAR     21  19  93 CALM      30.35S
CROSSVILLE     CLEAR     25  17  72 CALM      30.34S
$$

TNZ061-075-076-078-094-096-097-061200-
SOUTH MIDDLE TENNESSEE

CITY           SKY/WX    TMP DP  RH WIND       PRES   REMARKS
TULLAHOMA      CLEAR     25  21  86 CALM      30.36S
WINCHESTER     CLEAR     25  21  86 CALM      30.36S
MCMINNVILLE    CLEAR     25  23  93 CALM      30.36S
COLUMBIA       CLEAR     27  27 100 CALM      30.34F
SHELBYVILLE    CLEAR     27  21  80 E3        30.38R
$$

TNZ017-018-042-046-047-061200-
NORTHEAST TENNESSEE

CITY           SKY/WX    TMP DP  RH WIND       PRES   REMARKS
TRI CITIES     CLOUDY    24  18  77 CALM      30.37S
$$

TNZ012-013-036-069-073-074-061200-
CENTRAL EAST TENNESSEE

CITY           SKY/WX    TMP DP  RH WIND       PRES   REMARKS
KNOXVILLE      MOCLDY    27  21  78 E5        30.38R WCI  22
OAK RIDGE      CLOUDY    27  22  81 CALM      30.39F
GATLINBURG       N/A     23  19  86 CALM      30.38R
$$

TNZ083-085-099-061200-
SOUTHEAST TENNESSEE

CITY           SKY/WX    TMP DP  RH WIND       PRES   REMARKS
CHATTANOOGA    PTCLDY    30  24  78 CALM      30.38R
$$

SKY/WX REPORTED AS FAIR MEANS FEW OR NO CLOUDS BELOW
12 THOUSAND FEET.





USA.gov is the U.S. government's official web portal to all federal, state and local government web resources and services.